Time,TemperatureF,DewpointF,PressureIn,WindDirection,WindDirectionDegrees,WindSpeedMPH,WindSpeedGustMPH,Humidity,HourlyPrecipIn,Conditions,Clouds,dailyrainin,SoftwareType,DateUTC
2013-07-26 00:12:00,62.0,60.0,30.09,ENE,68,0.0,-999.0,92,-99.99,,,-99.99,,2013-07-26 04:12:00,
2013-07-26 00:23:00,61.0,59.0,30.10,ENE,68,0.0,-999.0,93,-99.99,,,-99.99,,2013-07-26 04:23:00,
2013-07-26 00:32:00,61.0,59.0,30.10,ENE,68,0.0,-999.0,93,-99.99,,,-99.99,,2013-07-26 04:32:00,
2013-07-26 00:42:00,61.0,59.0,30.10,ENE,68,0.0,-999.0,93,-99.99,,,-99.99,,2013-07-26 04:42:00,
2013-07-26 00:53:00,60.0,58.0,30.10,ENE,68,0.0,-999.0,93,-99.99,,,-99.99,,2013-07-26 04:53:00,
2013-07-26 01:02:00,60.0,58.0,30.10,ENE,68,0.0,-999.0,93,-99.99,,,-99.99,,2013-07-26 05:02:00,
2013-07-26 01:12:00,60.0,58.0,30.10,ENE,68,0.0,-999.0,93,-99.99,,,-99.99,,2013-07-26 05:12:00,
2013-07-26 01:22:00,60.0,58.0,30.09,ENE,68,0.0,-999.0,93,-99.99,,,-99.99,,2013-07-26 05:22:00,
2013-07-26 01:32:00,60.0,58.0,30.09,ENE,68,0.0,-999.0,93,-99.99,,,-99.99,,2013-07-26 05:32:00,
2013-07-26 01:43:00,60.0,58.0,30.09,ENE,68,0.0,-999.0,93,-99.99,,,-99.99,,2013-07-26 05:43:00,
2013-07-26 01:52:00,59.0,57.0,30.09,ENE,68,0.0,-999.0,93,-99.99,,,-99.99,,2013-07-26 05:52:00,
2013-07-26 02:12:00,59.0,57.0,30.09,ENE,68,0.0,-999.0,94,-99.99,,,-99.99,,2013-07-26 06:12:00,
2013-07-26 02:22:00,59.0,57.0,30.09,ENE,68,0.0,-999.0,94,-99.99,,,-99.99,,2013-07-26 06:22:00,
2013-07-26 02:33:00,59.0,57.0,30.09,ENE,68,0.0,-999.0,94,-99.99,,,-99.99,,2013-07-26 06:33:00,
2013-07-26 02:43:00,59.0,57.0,30.09,ENE,68,0.0,-999.0,94,-99.99,,,-99.99,,2013-07-26 06:43:00,
2013-07-26 02:52:00,59.0,57.0,30.09,ENE,68,0.0,-999.0,94,-99.99,,,-99.99,,2013-07-26 06:52:00,
2013-07-26 03:02:00,59.0,57.0,30.09,ENE,68,0.0,-999.0,94,-99.99,,,-99.99,,2013-07-26 07:02:00,
2013-07-26 03:22:00,58.0,56.0,30.09,ENE,68,0.0,-999.0,94,-99.99,,,-99.99,,2013-07-26 07:22:00,
2013-07-26 03:32:00,58.0,56.0,30.08,ENE,68,0.0,-999.0,94,-99.99,,,-99.99,,2013-07-26 07:32:00,
2013-07-26 03:43:00,58.0,56.0,30.08,ENE,68,0.0,-999.0,94,-99.99,,,-99.99,,2013-07-26 07:43:00,
2013-07-26 03:53:00,58.0,56.0,30.08,ENE,68,0.0,-999.0,94,-99.99,,,-99.99,,2013-07-26 07:53:00,
2013-07-26 04:02:00,58.0,56.0,30.09,ENE,68,0.0,-999.0,94,-99.99,,,-99.99,,2013-07-26 08:02:00,
2013-07-26 04:12:00,58.0,56.0,30.09,ENE,68,0.0,-999.0,94,-99.99,,,-99.99,,2013-07-26 08:12:00,
2013-07-26 04:22:00,57.0,55.0,30.08,ENE,68,0.0,-999.0,94,-99.99,,,-99.99,,2013-07-26 08:22:00,
2013-07-26 04:32:00,57.0,55.0,30.07,ENE,68,0.0,-999.0,94,-99.99,,,-99.99,,2013-07-26 08:32:00,
2013-07-26 04:44:00,57.0,55.0,30.07,ENE,68,0.0,-999.0,94,-99.99,,,-99.99,,2013-07-26 08:44:00,
2013-07-26 04:52:00,57.0,55.0,30.07,ENE,68,0.0,-999.0,94,-99.99,,,-99.99,,2013-07-26 08:52:00,
2013-07-26 05:02:00,57.0,56.0,30.06,ENE,68,0.0,-999.0,95,-99.99,,,-99.99,,2013-07-26 09:02:00,
2013-07-26 05:12:00,57.0,56.0,30.06,ENE,68,0.0,-999.0,95,-99.99,,,-99.99,,2013-07-26 09:12:00,
2013-07-26 05:22:00,58.0,57.0,30.06,ENE,68,0.0,-999.0,95,-99.99,,,-99.99,,2013-07-26 09:22:00,
2013-07-26 05:32:00,58.0,57.0,30.06,ENE,68,0.0,-999.0,95,-99.99,,,-99.99,,2013-07-26 09:32:00,
2013-07-26 05:43:00,58.0,57.0,30.06,ENE,68,0.0,-999.0,95,-99.99,,,-99.99,,2013-07-26 09:43:00,
2013-07-26 05:52:00,57.0,56.0,30.07,ENE,68,0.0,-999.0,95,-99.99,,,-99.99,,2013-07-26 09:52:00,
2013-07-26 06:02:00,57.0,56.0,30.07,ENE,68,0.0,-999.0,95,-99.99,,,-99.99,,2013-07-26 10:02:00,
2013-07-26 06:12:00,57.0,56.0,30.07,ENE,68,0.0,-999.0,95,-99.99,,,-99.99,,2013-07-26 10:12:00,
2013-07-26 06:22:00,57.0,56.0,30.09,ENE,68,0.0,-999.0,95,-99.99,,,-99.99,,2013-07-26 10:22:00,
2013-07-26 06:33:00,57.0,56.0,30.09,ENE,68,0.0,-999.0,95,-99.99,,,-99.99,,2013-07-26 10:33:00,
2013-07-26 06:42:00,57.0,56.0,30.10,ENE,68,0.0,-999.0,95,-99.99,,,-99.99,,2013-07-26 10:42:00,
2013-07-26 06:53:00,56.0,55.0,30.09,ENE,68,0.0,-999.0,95,-99.99,,,-99.99,,2013-07-26 10:53:00,
2013-07-26 07:02:00,56.0,55.0,30.09,ENE,68,0.0,-999.0,95,-99.99,,,-99.99,,2013-07-26 11:02:00,
2013-07-26 07:12:00,56.0,55.0,30.09,ENE,68,0.0,-999.0,95,-99.99,,,-99.99,,2013-07-26 11:12:00,
2013-07-26 07:22:00,57.0,56.0,30.10,ENE,68,0.0,-999.0,95,-99.99,,,-99.99,,2013-07-26 11:22:00,
2013-07-26 07:43:00,57.0,56.0,30.10,ENE,69,0.0,-999.0,96,-99.99,,,-99.99,,2013-07-26 11:43:00,
2013-07-26 07:52:00,57.0,56.0,30.10,ENE,68,0.0,-999.0,95,-99.99,,,-99.99,,2013-07-26 11:52:00,
2013-07-26 08:02:00,57.0,56.0,30.10,ENE,68,0.0,-999.0,95,-99.99,,,-99.99,,2013-07-26 12:02:00,
2013-07-26 08:12:00,57.0,56.0,30.10,ENE,68,0.0,-999.0,95,-99.99,,,-99.99,,2013-07-26 12:12:00,
2013-07-26 08:22:00,58.0,57.0,30.10,ENE,68,0.0,-999.0,96,-99.99,,,-99.99,,2013-07-26 12:22:00,
2013-07-26 08:33:00,58.0,57.0,30.10,ENE,68,0.0,-999.0,96,-99.99,,,-99.99,,2013-07-26 12:33:00,
2013-07-26 08:43:00,59.0,58.0,30.11,ENE,68,0.0,-999.0,96,-99.99,,,-99.99,,2013-07-26 12:43:00,
2013-07-26 08:53:00,60.0,59.0,30.11,ENE,68,0.0,-999.0,96,-99.99,,,-99.99,,2013-07-26 12:53:00,
2013-07-26 09:12:00,60.0,59.0,30.11,ENE,68,0.0,-999.0,96,-99.99,,,-99.99,,2013-07-26 13:12:00,
2013-07-26 09:32:00,62.0,61.0,30.11,ENE,68,0.0,-999.0,96,-99.99,,,-99.99,,2013-07-26 13:32:00,
2013-07-26 09:43:00,63.0,62.0,30.10,ENE,68,0.0,-999.0,96,-99.99,,,-99.99,,2013-07-26 13:43:00,
2013-07-26 10:02:00,65.0,64.0,30.11,ENE,68,0.0,-999.0,96,-99.99,,,-99.99,,2013-07-26 14:02:00,
2013-07-26 10:12:00,65.0,64.0,30.11,ENE,68,0.0,-999.0,96,-99.99,,,-99.99,,2013-07-26 14:12:00,
2013-07-26 10:43:00,71.0,64.0,30.10,ENE,77,0.0,-999.0,79,-99.99,,,-99.99,,2013-07-26 14:43:00,
2013-07-26 10:53:00,73.0,65.0,30.11,ENE,77,1.0,-999.0,75,-99.99,,,-99.99,,2013-07-26 14:53:00,
2013-07-26 11:02:00,73.0,65.0,30.11,ENE,77,1.0,-999.0,75,-99.99,,,-99.99,,2013-07-26 15:02:00,
2013-07-26 11:12:00,73.0,65.0,30.11,ENE,77,1.0,-999.0,75,-99.99,,,-99.99,,2013-07-26 15:12:00,
2013-07-26 11:22:00,76.0,64.0,30.10,SE,130,2.0,-999.0,66,-99.99,,,-99.99,,2013-07-26 15:22:00,
2013-07-26 11:43:00,76.0,63.0,30.10,SE,136,1.0,-999.0,64,-99.99,,,-99.99,,2013-07-26 15:43:00,
2013-07-26 11:53:00,76.0,63.0,30.10,SE,136,1.0,-999.0,64,-99.99,,,-99.99,,2013-07-26 15:53:00,
2013-07-26 12:02:00,77.0,62.0,30.10,SE,140,1.0,-999.0,59,-99.99,,,-99.99,,2013-07-26 16:02:00,
2013-07-26 12:14:00,77.0,62.0,30.10,SE,140,1.0,-999.0,59,-99.99,,,-99.99,,2013-07-26 16:14:00,
2013-07-26 12:32:00,77.0,63.0,30.09,East,101,2.0,-999.0,61,-99.99,,,-99.99,,2013-07-26 16:32:00,
2013-07-26 12:43:00,77.0,62.0,30.09,SSE,159,3.0,-999.0,60,-99.99,,,-99.99,,2013-07-26 16:43:00,
2013-07-26 12:54:00,77.0,62.0,30.09,SSE,165,3.0,-999.0,60,-99.99,,,-99.99,,2013-07-26 16:54:00,
2013-07-26 13:12:00,77.0,63.0,30.09,SSE,148,2.0,-999.0,62,-99.99,,,-99.99,,2013-07-26 17:12:00,
2013-07-26 13:22:00,79.0,64.0,30.09,ENE,72,1.0,-999.0,61,-99.99,,,-99.99,,2013-07-26 17:22:00,
2013-07-26 13:33:00,79.0,64.0,30.09,ENE,72,1.0,-999.0,61,-99.99,,,-99.99,,2013-07-26 17:33:00,
2013-07-26 13:43:00,79.0,64.0,30.08,SE,128,3.0,-999.0,60,-99.99,,,-99.99,,2013-07-26 17:43:00,
2013-07-26 13:53:00,79.0,62.0,30.08,SE,126,2.0,-999.0,57,-99.99,,,-99.99,,2013-07-26 17:53:00,
2013-07-26 14:03:00,79.0,62.0,30.08,SE,126,2.0,-999.0,57,-99.99,,,-99.99,,2013-07-26 18:03:00,
2013-07-26 14:12:00,79.0,62.0,30.08,SE,127,2.0,-999.0,57,-99.99,,,-99.99,,2013-07-26 18:12:00,
2013-07-26 14:23:00,79.0,63.0,30.07,ESE,121,2.0,-999.0,59,-99.99,,,-99.99,,2013-07-26 18:23:00,
2013-07-26 14:33:00,79.0,63.0,30.07,ESE,121,2.0,-999.0,59,-99.99,,,-99.99,,2013-07-26 18:33:00,
2013-07-26 14:44:00,79.0,63.0,30.07,NW,311,2.0,-999.0,59,-99.99,,,-99.99,,2013-07-26 18:44:00,
2013-07-26 14:52:00,80.0,63.0,30.06,SW,231,1.0,-999.0,57,-99.99,,,-99.99,,2013-07-26 18:52:00,
2013-07-26 15:03:00,80.0,63.0,30.06,SW,231,1.0,-999.0,57,-99.99,,,-99.99,,2013-07-26 19:03:00,
2013-07-26 15:12:00,81.0,65.0,30.06,WSW,237,1.0,-999.0,58,-99.99,,,-99.99,,2013-07-26 19:12:00,
2013-07-26 15:22:00,81.0,64.0,30.05,West,277,3.0,-999.0,56,-99.99,,,-99.99,,2013-07-26 19:22:00,
2013-07-26 15:32:00,81.0,64.0,30.05,West,277,3.0,-999.0,56,-99.99,,,-99.99,,2013-07-26 19:32:00,
2013-07-26 15:43:00,82.0,67.0,30.05,WSW,251,3.0,-999.0,60,-99.99,,,-99.99,,2013-07-26 19:43:00,
2013-07-26 15:52:00,82.0,64.0,30.04,WNW,297,4.0,-999.0,54,-99.99,,,-99.99,,2013-07-26 19:52:00,
2013-07-26 16:02:00,82.0,64.0,30.04,WNW,297,4.0,-999.0,54,-99.99,,,-99.99,,2013-07-26 20:02:00,
2013-07-26 16:12:00,82.0,65.0,30.04,WNW,297,3.0,-999.0,57,-99.99,,,-99.99,,2013-07-26 20:12:00,
2013-07-26 16:22:00,82.0,64.0,30.03,WSW,252,1.0,-999.0,55,-99.99,,,-99.99,,2013-07-26 20:22:00,
2013-07-26 16:32:00,82.0,64.0,30.03,WSW,252,1.0,-999.0,55,-99.99,,,-99.99,,2013-07-26 20:32:00,
2013-07-26 16:43:00,82.0,66.0,30.03,West,263,2.0,-999.0,58,-99.99,,,-99.99,,2013-07-26 20:43:00,
2013-07-26 16:53:00,82.0,63.0,30.03,WSW,254,4.0,-999.0,53,-99.99,,,-99.99,,2013-07-26 20:53:00,
2013-07-26 17:02:00,82.0,63.0,30.03,WSW,254,4.0,-999.0,53,-99.99,,,-99.99,,2013-07-26 21:02:00,
2013-07-26 17:12:00,82.0,65.0,30.03,SW,229,4.0,-999.0,56,-99.99,,,-99.99,,2013-07-26 21:12:00,
2013-07-26 17:22:00,81.0,63.0,30.03,WSW,254,3.0,-999.0,54,-99.99,,,-99.99,,2013-07-26 21:22:00,
2013-07-26 17:43:00,82.0,64.0,30.02,SW,236,1.0,-999.0,55,-99.99,,,-99.99,,2013-07-26 21:43:00,
2013-07-26 17:53:00,82.0,65.0,30.03,WNW,289,3.0,-999.0,57,-99.99,,,-99.99,,2013-07-26 21:53:00,
2013-07-26 18:02:00,82.0,65.0,30.03,WNW,289,3.0,-999.0,57,-99.99,,,-99.99,,2013-07-26 22:02:00,
2013-07-26 18:12:00,82.0,66.0,30.03,WNW,303,4.0,-999.0,59,-99.99,,,-99.99,,2013-07-26 22:12:00,
2013-07-26 18:22:00,82.0,66.0,30.02,WNW,294,5.0,-999.0,59,-99.99,,,-99.99,,2013-07-26 22:22:00,
2013-07-26 18:43:00,81.0,66.0,30.03,WNW,300,5.0,-999.0,60,-99.99,,,-99.99,,2013-07-26 22:43:00,
2013-07-26 18:53:00,81.0,65.0,30.02,WNW,295,4.0,-999.0,59,-99.99,,,-99.99,,2013-07-26 22:53:00,
2013-07-26 19:02:00,81.0,65.0,30.02,WNW,295,4.0,-999.0,59,-99.99,,,-99.99,,2013-07-26 23:02:00,
2013-07-26 19:12:00,81.0,65.0,30.02,WNW,294,4.0,-999.0,59,-99.99,,,-99.99,,2013-07-26 23:12:00,
2013-07-26 19:22:00,81.0,65.0,30.02,WNW,294,4.0,-999.0,59,-99.99,,,-99.99,,2013-07-26 23:22:00,
2013-07-26 19:32:00,81.0,66.0,30.02,WNW,296,3.0,-999.0,60,-99.99,,,-99.99,,2013-07-26 23:32:00,
2013-07-26 19:43:00,81.0,66.0,30.02,WNW,296,3.0,-999.0,60,-99.99,,,-99.99,,2013-07-26 23:43:00,
2013-07-26 19:53:00,81.0,67.0,30.02,WNW,296,2.0,-999.0,62,-99.99,,,-99.99,,2013-07-26 23:53:00,
2013-07-26 20:02:00,81.0,67.0,30.02,WNW,296,1.0,-999.0,62,-99.99,,,-99.99,,2013-07-27 00:02:00,
2013-07-26 20:12:00,81.0,67.0,30.02,WNW,296,1.0,-999.0,62,-99.99,,,-99.99,,2013-07-27 00:12:00,
2013-07-26 20:22:00,80.0,69.0,30.01,WNW,296,0.0,-999.0,69,-99.99,,,-99.99,,2013-07-27 00:22:00,
2013-07-26 20:32:00,80.0,69.0,30.01,WNW,296,0.0,-999.0,69,-99.99,,,-99.99,,2013-07-27 00:32:00,
2013-07-26 20:43:00,78.0,69.0,30.01,WNW,296,0.0,-999.0,73,-99.99,,,-99.99,,2013-07-27 00:43:00,
2013-07-26 20:53:00,78.0,69.0,30.01,WNW,296,0.0,-999.0,73,-99.99,,,-99.99,,2013-07-27 00:53:00,
2013-07-26 21:02:00,76.0,68.0,30.01,WNW,296,0.0,-999.0,76,-99.99,,,-99.99,,2013-07-27 01:02:00,
2013-07-26 21:12:00,76.0,68.0,30.01,WNW,296,0.0,-999.0,76,-99.99,,,-99.99,,2013-07-27 01:12:00,
2013-07-26 21:22:00,73.0,67.0,30.01,WNW,296,0.0,-999.0,82,-99.99,,,-99.99,,2013-07-27 01:22:00,
2013-07-26 21:32:00,73.0,67.0,30.01,WNW,296,0.0,-999.0,82,-99.99,,,-99.99,,2013-07-27 01:32:00,
2013-07-26 21:43:00,71.0,66.0,30.01,WNW,296,0.0,-999.0,83,-99.99,,,-99.99,,2013-07-27 01:43:00,
2013-07-26 21:53:00,71.0,66.0,30.01,WNW,296,0.0,-999.0,83,-99.99,,,-99.99,,2013-07-27 01:53:00,
2013-07-26 22:02:00,70.0,65.0,30.02,WNW,296,0.0,-999.0,85,-99.99,,,-99.99,,2013-07-27 02:02:00,
2013-07-26 22:12:00,70.0,65.0,30.02,WNW,296,0.0,-999.0,85,-99.99,,,-99.99,,2013-07-27 02:12:00,
2013-07-26 22:22:00,68.0,64.0,30.03,WNW,296,0.0,-999.0,88,-99.99,,,-99.99,,2013-07-27 02:22:00,
2013-07-26 22:32:00,68.0,65.0,30.03,WNW,296,0.0,-999.0,89,-99.99,,,-99.99,,2013-07-27 02:32:00,
2013-07-26 22:43:00,68.0,65.0,30.03,WNW,296,0.0,-999.0,89,-99.99,,,-99.99,,2013-07-27 02:43:00,
2013-07-26 22:53:00,67.0,64.0,30.03,WNW,296,0.0,-999.0,89,-99.99,,,-99.99,,2013-07-27 02:53:00,
2013-07-26 23:03:00,67.0,64.0,30.03,WNW,296,0.0,-999.0,89,-99.99,,,-99.99,,2013-07-27 03:03:00,
2013-07-26 23:12:00,67.0,64.0,30.03,WNW,296,0.0,-999.0,90,-99.99,,,-99.99,,2013-07-27 03:12:00,
2013-07-26 23:33:00,66.0,63.0,30.03,WNW,296,0.0,-999.0,91,-99.99,,,-99.99,,2013-07-27 03:33:00,
2013-07-26 23:44:00,66.0,64.0,30.01,WNW,296,0.0,-999.0,92,-99.99,,,-99.99,,2013-07-27 03:44:00,
2013-07-26 23:52:00,65.0,63.0,30.01,WNW,296,0.0,-999.0,92,-99.99,,,-99.99,,2013-07-27 03:52:00,